This demonstration page uses our WeatherBlox Daily Observations layout. Learn more.

Left ArrowRight Arrow

38.88101, -77.10428

Hourly Observations for December 27, 2019

Temp ( °F °C ) Dew Point ( °F °C ) Humidity (%) Winds ( mph kmh ) Pressure ( in mb ) Visibility ( mi km ) Precip ( " mm )
12:52 am 00:52 Cloudy 43 6.1 41 5 93 93 Calm 30.32 1027 10 16.0934 0 0
1:52 am 01:52 Mostly Cloudy 41 5 39 3.9 93 93 Calm 30.32 1027 10 16.0934 0 0
2:52 am 02:52 Cloudy 40 4.4 39 3.9 97 97 Calm 30.32 1027 8 12.87472 0 0
3:24 am 03:24 Cloudy 42 5.6 40 4.4 92 92 Calm 30.32 1027 9 14.48406 0 0
3:52 am 03:52 Cloudy with Mist and Fog 38 3.3 37 2.8 97 97 Calm 30.32 1027 6 9.65604 0 0
4:25 am 04:25 Cloudy 41 5 40 4.4 96 96 E 3 6 30.31 1026 8 12.87472 0 0
4:52 am 04:52 Cloudy 42 5.6 40 4.4 92 92 ENE 5 7 30.31 1026 10 16.0934 0 0
5:14 am 05:14 Cloudy 41 5 40 4.4 96 96 Calm 30.31 1026 10 16.0934 0 0
5:52 am 05:52 Cloudy with Fog 41 5 40 4.4 96 96 Calm 30.31 1026 0.5 0.80467 0 0
6:52 am 06:52 Cloudy with Mist and Fog 42 5.6 42 5.6 100 100 S 5 7 30.31 1026 1 1.60934 0 0
7:13 am 07:13 Cloudy with Fog 42 5.6 41 5 96 96 S 5 7 30.31 1026 0.5 0.80467 0 0
7:52 am 07:52 Mostly Cloudy with Fog 43 6.1 43 6.1 100 100 S 6 9 30.3 1026 0.5 0.80467 0 0
8:07 am 08:07 Cloudy with Mist and Fog 43 6.1 43 6.1 100 100 S 7 11 30.31 1026 1 1.60934 0 0
8:52 am 08:52 Cloudy with Mist and Fog 44 6.7 43 6.1 96 96 S 8 13 30.31 1027 2 3.21868 0 0
9:18 am 09:18 Cloudy with Mist and Fog 43 6.1 42 5.6 97 97 S 7 11 30.31 1026 3 4.82802 0 0
9:52 am 09:52 Cloudy with Mist and Fog 43 6.1 42 5.6 97 97 S 7 11 30.32 1027 4 6.43736 0 0
10:04 am 10:04 Cloudy with Mist and Fog 43 6.1 42 5.6 97 97 S 6 9 30.32 1027 6 9.65604 0 0
10:16 am 10:16 Cloudy 44 6.7 43 6.1 96 96 S 6 9 30.32 1027 8 12.87472 0 0
10:52 am 10:52 Cloudy 46 7.8 43 6.1 89 89 S 7 11 30.3 1026 9 14.48406 0 0
11:52 am 11:52 Cloudy 47 8.3 43 6.1 86 86 S 10 17 30.24 1024 10 16.0934 0 0
12:31 pm 12:31 Cloudy 48 8.9 44 6.7 86 86 S 7 11 30.22 1023 10 16.0934 0 0
12:48 pm 12:48 Partly Cloudy 52 11 46 8 82 82 SSW 9 15 30.21 1023 10 16.0934 0 0
12:52 pm 12:52 Mostly Cloudy 52 11.1 46 7.8 80 80 SSW 9 15 30.21 1023 10 16.0934 0 0
1:52 pm 13:52 Mostly Cloudy 52 11.1 46 7.8 80 80 S 7 11 30.19 1022 10 16.0934 0 0
2:52 pm 14:52 Mostly Cloudy 55 12.8 47 8.3 74 74 S 7 11 30.18 1022 10 16.0934 0 0
3:52 pm 15:52 Cloudy 54 12.2 46 7.8 75 75 S 9 15 30.18 1022 10 16.0934 0 0
4:52 pm 16:52 Cloudy 51 10.6 45 7.2 80 80 VRB 3 6 30.19 1022 10 16.0934 0 0
5:52 pm 17:52 Cloudy 51 10.6 45 7.2 80 80 Calm 30.2 1023 10 16.0934 0 0
6:52 pm 18:52 Cloudy 51 10.6 45 7.2 80 80 Calm 30.21 1023 10 16.0934 0 0
7:52 pm 19:52 Partly Cloudy 46 7.8 44 6.7 93 93 Calm 30.22 1023 10 16.0934 0 0
8:52 pm 20:52 Mostly Cloudy 49 9.4 46 7.8 90 90 SSW 5 7 30.21 1023 10 16.0934 0 0
9:52 pm 21:52 Cloudy 46 7.8 44 6.7 93 93 S 3 6 30.21 1023 9 14.48406 0 0
10:52 pm 22:52 Cloudy 45 7.2 43 6.1 93 93 S 5 7 30.2 1023 9 14.48406 0 0
11:52 pm 23:52 Cloudy 45 7.2 43 6.1 93 93 Calm 30.19 1022 7 11.26538 0 0

Powered by AerisWeather